Find Weitong-1 01

NORAD ID: 68202 Int'l Des: NNA 2026-052 Owner: XZKJ Country: CN operational
LEOCIRCULARRETROGRADESSO

当前视图

正在加载3D地球...

About Weitong-1 01

Weitong-1 01 (NORAD 68202) is a satellite launched Mar 16, 2026 by XZKJ of CN. It operates in LEO, CIRCULAR, RETROGRADE, SSO orbit with a mass of 50.00 kg.

即将过境

Passes for default location (London). Set your location on the main map for personalized predictions.

高度历史

Loading altitude history...

两行轨道根数

1 68202U 26052E 26166.15209824 .00006041 00000-0 36133-3 0 9995
2 68202 97.5340 241.0253 0010410 325.4218 34.6334 15.11376716 13742
Epoch: Jun 15, 2026 • Age: 11 hours

当前状态

高度 556.0 km
速度 7.58 km/s
星下点 -69.88°S, 77.84°W
发射日期 Mar 16, 2026
运行时间 0.2 years
类型 other

技术详情

分类 Payload
质量 50.00 kg
干质量 50.00 kg
总质量 50.00 kg
长度 0.50 m
直径 0.50 m
跨度 0.50 m
形状 Box
制造商 XZKJ
平台类型 Weitong
阶段状态 In Orbit
所有者/国家 XZKJ/CN

Most Searched